DW7500 Weather Reports


time (UTC)temp
C
wind
direction
speed
KPH
gust
KPH
rain 1hr
cm
rain 24hr
cm
rain mn
cm
humidity
%
barometer
mb
20260507213002 8 360 6.4 14.5 0.00 0.00 0.00 55 1011.1
20260507211502 8 360 6.4 17.7 0.00 0.00 0.00 59 1011.2
20260507210105 8 284 6.4 16.1 0.00 0.00 0.00 54 1011.3
20260507204601 8 360 4.8 20.9 0.00 0.00 0.00 53 1011.4
20260507203100 8 360 9.7 16.1 0.00 0.00 0.00 55 1011.5
20260507201557 8 360 14.5 19.3 0.00 0.00 0.00 57 1011.8
20260507200056 8 360 4.8 20.9 0.00 0.00 0.00 56 1012.0
20260507194555 8 244 11.3 20.9 0.00 0.00 0.00 48 1012.2
20260507193053 8 219 8.0 19.3 0.00 0.00 0.00 52 1012.3
20260507191553 8 252 11.3 19.3 0.00 0.00 0.00 50 1012.3
20260507190052 8 325 8.0 17.7 0.00 0.00 0.00 49 1012.4
20260507184551 8 222 8.0 14.5 0.00 0.00 0.00 49 1012.3
20260507183050 9 264 8.0 16.1 0.00 0.00 0.00 50 1012.2
20260507181546 8 267 6.4 16.1 0.00 0.00 0.00 51 1012.4
20260507180054 8 289 11.3 20.9 0.00 0.00 0.00 57 1012.5
20260507174544 8 286 8.0 14.5 0.00 0.00 0.00 55 1012.3
20260507173047 8 292 9.7 16.1 0.00 0.00 0.00 58 1012.7
20260507171558 8 306 8.0 14.5 0.00 0.00 0.00 63 1012.9
20260507170042 8 271 9.7 17.7 0.00 0.00 0.00 64 1013.1
20260507164545 8 282 8.0 20.9 0.00 0.00 0.00 65 1013.3
20260507163044 7 256 9.7 20.9 0.00 0.00 0.00 69 1013.5
20260507161541 7 263 12.9 22.5 0.00 0.00 0.00 70 1013.7
20260507160045 7 284 11.3 25.7 0.00 0.00 0.00 68 1013.8
20260507154533 7 254 6.4 24.1 0.00 0.00 0.00 70 1013.9
20260507153032 7 360 12.9 20.9 0.00 0.00 0.00 70 1013.8
20260507151528 6 360 8.0 22.5 0.00 0.00 0.00 71 1013.8
20260507150028 6 360 4.8 17.7 0.00 0.00 0.00 72 1013.8
20260507144532 6 360 9.7 19.3 0.00 0.00 0.00 75 1013.8
20260507143025 5 360 4.8 12.9 0.00 0.00 0.00 77 1013.9
20260507141524 5 360 8.0 16.1 0.00 0.00 0.00 75 1014.0
20260507140022 5 360 8.0 14.5 0.00 0.00 0.00 73 1013.9
20260507134521 5 360 4.8 14.5 0.00 0.00 0.00 73 1013.9
20260507133021 5 360 4.8 14.5 0.00 0.00 0.00 74 1013.9
20260507131518 5 360 4.8 12.9 0.00 0.00 0.00 79 1013.7
20260507130025 5 360 6.4 14.5 0.00 0.00 0.00 82 1013.5
20260507124522 4 360 3.2 8.0 0.00 0.00 0.00 89 1013.4
20260507123016 3 360 3.2 11.3 0.00 0.00 0.00 94 1013.3
20260507121514 3 360 6.4 12.9 0.00 0.00 0.00 96 1013.2
20260507120013 2 360 4.8 9.7 0.00 0.00 0.00 97 1013.1
20260507114510 0 150 3.2 4.8 0.00 0.00 0.00 95 1012.9
20260507113010 0 360 0.0 0.0 0.00 0.00 0.00 95 1012.8
20260507111503 0 360 0.0 1.6 0.00 0.00 0.00 94 1012.8
20260507110100 0 360 0.0 1.6 0.00 0.00 0.00 93 1012.6
20260507104559 0 360 0.0 3.2 0.00 0.00 0.00 93 1012.5
20260507103055 0 360 0.0 3.2 0.00 0.00 0.00 93 1012.4
20260507101558 0 360 0.0 1.6 0.00 0.00 0.00 92 1012.4
20260507100055 0 360 0.0 3.2 0.00 0.00 0.00 92 1012.4
20260507094550 1 360 1.6 3.2 0.00 0.00 0.00 91 1012.3
20260507093047 1 360 1.6 3.2 0.00 0.00 0.00 90 1012.5
20260507091545 1 360 0.0 0.0 0.00 0.00 0.00 89 1012.5
20260507090043 1 360 0.0 0.0 0.00 0.00 0.00 89 1012.5
20260507084540 2 360 0.0 0.0 0.00 0.00 0.00 89 1012.6
20260507083038 2 360 0.0 3.2 0.00 0.00 0.00 89 1012.6
20260507081535 2 360 0.0 1.6 0.00 0.00 0.00 88 1012.5
20260507080034 3 360 1.6 4.8 0.00 0.00 0.00 87 1012.7
20260507074530 3 360 0.0 3.2 0.00 0.00 0.00 86 1012.6
20260507073029 4 360 0.0 6.4 0.00 0.00 0.00 85 1012.7
20260507071525 4 360 1.6 3.2 0.00 0.00 0.00 84 1012.7
20260507070022 5 360 1.6 6.4 0.00 0.00 0.00 84 1012.8
20260507064523 5 360 0.0 6.4 0.00 0.00 0.00 83 1013.0
20260507063031 5 360 3.2 14.5 0.00 0.00 0.00 81 1013.1
20260507061515 5 360 8.0 19.3 0.00 0.00 0.00 78 1013.2
20260507060032 5 360 6.4 25.7 0.00 0.00 0.00 77 1013.2
20260507054511 6 360 4.8 16.1 0.00 0.00 0.00 75 1013.3
20260507053008 6 360 8.0 20.9 0.00 0.00 0.00 74 1013.2
20260507051508 6 360 6.4 16.1 0.00 0.00 0.00 73 1013.2
20260507050006 6 360 6.4 16.1 0.00 0.00 0.00 73 1013.3
20260507044503 6 360 8.0 17.7 0.00 0.00 0.00 73 1013.2
20260507043002 6 360 4.8 14.5 0.00 0.00 0.00 74 1013.2
20260507041559 6 360 6.4 17.7 0.00 0.00 0.00 74 1013.3
20260507040105 6 360 0.0 12.9 0.00 0.00 0.00 77 1013.0
20260507034555 6 360 3.2 12.9 0.00 0.00 0.00 77 1013.1
20260507033101 7 360 6.4 16.1 0.00 0.00 0.00 75 1013.1
20260507031601 7 360 6.4 16.1 0.00 0.00 0.00 72 1013.1
20260507030054 7 360 9.7 17.7 0.00 0.00 0.00 70 1012.9
20260507024554 7 360 8.0 14.5 0.00 0.00 0.00 66 1013.1
20260507023052 7 360 3.2 9.7 0.00 0.00 0.00 61 1012.9
20260507021551 7 360 6.4 12.9 0.00 0.00 0.00 60 1012.8
20260507020052 7 360 4.8 11.3 0.00 0.00 0.00 58 1012.8
20260507014554 7 360 3.2 9.7 0.00 0.00 0.00 57 1012.8
20260507013151 7 360 6.4 17.7 0.00 0.00 0.00 57 1012.7
20260507011549 7 360 6.4 17.7 0.00 0.00 0.00 56 1012.7
20260507010058 7 360 9.7 16.1 0.00 0.00 0.00 54 1012.7
20260507004549 7 360 8.0 12.9 0.00 0.00 0.00 57 1012.6
20260507003046 7 360 4.8 9.7 0.00 0.00 0.00 66 1012.5
20260507001550 7 360 6.4 11.3 0.00 0.00 0.00 67 1012.4
20260507000046 7 360 6.4 11.3 0.00 0.00 0.00 67 1012.3
20260506234548 7 360 8.0 19.3 0.00 0.00 0.00 66 1012.3
20260506233059 7 360 9.7 16.1 0.00 0.00 0.00 65 1012.4
20260506231544 8 360 8.0 12.9 0.00 0.00 0.00 64 1012.4
20260506230043 8 360 6.4 12.9 0.00 0.00 0.00 61 1012.3
20260506224543 8 360 8.0 19.3 0.00 0.00 0.00 59 1012.4
20260506223042 9 256 8.0 14.5 0.00 0.00 0.00 59 1012.6
20260506221548 9 263 6.4 16.1 0.00 0.00 0.00 60 1012.6
20260506220042 9 247 8.0 12.9 0.00 0.00 0.00 60 1012.4
20260506214541 9 263 8.0 17.7 0.00 0.00 0.00 59 1012.4